Hourly Weather Ruchna

Today, 16 April, Friday

Time Temperature Precipitation Wind Pressure Humidity
00:00 +3°C° 0.1 mm 3 mps 749 mmHg 98%
01:00 +3°C° 0 mm 3 mps 748 mmHg 97%
02:00 +3°C° 0.2 mm 4 mps 748 mmHg 97%
03:00 +3°C° 0.2 mm 4 mps 748 mmHg 97%
04:00 +3°C° 0.2 mm 4 mps 748 mmHg 97%
05:00 +3°C° 0.3 mm 4 mps 748 mmHg 97%
06:00 +2°C° 0.3 mm 5 mps 747 mmHg 97%
07:00 +2°C° 0.3 mm 5 mps 747 mmHg 96%
08:00 +3°C° 0.2 mm 5 mps 747 mmHg 96%
09:00 +3°C° 0.2 mm 5 mps 747 mmHg 95%
10:00 +3°C° 0.2 mm 5 mps 747 mmHg 95%
11:00 +5°C° 0.1 mm 5 mps 747 mmHg 94%
12:00 +5°C° 0.1 mm 5 mps 747 mmHg 93%
13:00 +6°C° 0.1 mm 5 mps 747 mmHg 93%
14:00 +6°C° 0.1 mm 4 mps 748 mmHg 92%
15:00 +6°C° 0.1 mm 4 mps 748 mmHg 92%
16:00 +6°C° 0.1 mm 4 mps 748 mmHg 92%
17:00 +6°C° 0 mm 4 mps 748 mmHg 93%
18:00 +6°C° 0 mm 4 mps 748 mmHg 94%
19:00 +6°C° 0 mm 4 mps 748 mmHg 96%
20:00 +6°C° 0.2 mm 4 mps 748 mmHg 96%
21:00 +5°C° 0.2 mm 4 mps 748 mmHg 97%
22:00 +5°C° 0.2 mm 3 mps 748 mmHg 97%
23:00 +7°C° 0.2 mm 3 mps 748 mmHg 96%

Tomorrow, 17 April, Saturday

Time Temperature Precipitation Wind Pressure Humidity
00:00 +6°C° 0.2 mm 4 mps 748 mmHg 96%
01:00 +6°C° 0.2 mm 4 mps 748 mmHg 95%
02:00 +6°C° 0.1 mm 4 mps 748 mmHg 95%
03:00 +5°C° 0.1 mm 3 mps 749 mmHg 96%
04:00 +5°C° 0.1 mm 3 mps 749 mmHg 96%
05:00 +5°C° 0.1 mm 3 mps 749 mmHg 95%
06:00 +7°C° 0.1 mm 3 mps 749 mmHg 95%
07:00 +7°C° 0.1 mm 3 mps 750 mmHg 94%
08:00 +8°C° 0.1 mm 3 mps 750 mmHg 90%
09:00 +9°C° 0.1 mm 3 mps 750 mmHg 86%
10:00 +10°C° 0.1 mm 2 mps 750 mmHg 82%
11:00 +10°C° 0.3 mm 3 mps 750 mmHg 77%
12:00 +11°C° 0.3 mm 3 mps 750 mmHg 73%
13:00 +12°C° 0.3 mm 3 mps 750 mmHg 69%
14:00 +12°C° 0.1 mm 3 mps 750 mmHg 68%
15:00 +12°C° 0.1 mm 3 mps 751 mmHg 67%
16:00 +12°C° 0.1 mm 3 mps 751 mmHg 66%
17:00 +10°C° 0 mm 3 mps 751 mmHg 72%
18:00 +9°C° 0 mm 2 mps 751 mmHg 79%
19:00 +7°C° 0 mm 2 mps 751 mmHg 85%
20:00 +7°C° 0 mm 2 mps 752 mmHg 87%
21:00 +6°C° 0 mm 2 mps 752 mmHg 89%
22:00 +5°C° 0 mm 2 mps 752 mmHg 90%
23:00 +5°C° 0 mm 2 mps 752 mmHg 90%

Day after tomorrow, 18 April, Sunday

Time Temperature Precipitation Wind Pressure Humidity
00:00 +6°C° 0 mm 1 mps 752 mmHg 90%
01:00 +6°C° 0 mm 1 mps 752 mmHg 90%
02:00 +5°C° 0 mm 1 mps 752 mmHg 90%
03:00 +5°C° 0 mm 1 mps 752 mmHg 91%
04:00 +5°C° 0 mm 1 mps 752 mmHg 91%
05:00 +6°C° 0 mm 1 mps 752 mmHg 88%
06:00 +7°C° 0 mm 1 mps 752 mmHg 85%
07:00 +8°C° 0 mm 1 mps 752 mmHg 81%
08:00 +10°C° 0 mm 1 mps 752 mmHg 77%
09:00 +11°C° 0 mm 1 mps 752 mmHg 73%
10:00 +13°C° 0 mm 2 mps 752 mmHg 69%
11:00 +13°C° 0.1 mm 2 mps 752 mmHg 71%
12:00 +13°C° 0.1 mm 2 mps 751 mmHg 73%
13:00 +12°C° 0.1 mm 3 mps 751 mmHg 74%
14:00 +12°C° 0.2 mm 3 mps 751 mmHg 73%
15:00 +13°C° 0.2 mm 3 mps 751 mmHg 72%
16:00 +13°C° 0.2 mm 3 mps 751 mmHg 70%
17:00 +12°C° 0.2 mm 3 mps 751 mmHg 76%
18:00 +11°C° 0.2 mm 3 mps 751 mmHg 82%
19:00 +10°C° 0.2 mm 3 mps 751 mmHg 88%
20:00 +10°C° 0 mm 3 mps 751 mmHg 88%
21:00 +9°C° 0 mm 3 mps 751 mmHg 88%
22:00 +8°C° 0 mm 4 mps 751 mmHg 88%
23:00 +7°C° 0 mm 4 mps 751 mmHg 89%

19 April, Monday

Time Temperature Precipitation Wind Pressure Humidity
00:00 +7°C° 0 mm 3 mps 751 mmHg 90%
01:00 +5°C° 0 mm 3 mps 751 mmHg 92%
02:00 +4°C° 0 mm 3 mps 751 mmHg 92%
03:00 +4°C° 0 mm 3 mps 751 mmHg 92%
04:00 +4°C° 0 mm 3 mps 751 mmHg 92%
05:00 +5°C° 0 mm 3 mps 751 mmHg 87%
06:00 +6°C° 0 mm 4 mps 751 mmHg 82%
07:00 +7°C° 0 mm 4 mps 751 mmHg 77%
08:00 +8°C° 0 mm 4 mps 751 mmHg 72%
09:00 +10°C° 0 mm 4 mps 751 mmHg 68%
10:00 +11°C° 0 mm 4 mps 751 mmHg 63%
11:00 +11°C° 0 mm 4 mps 751 mmHg 63%
12:00 +11°C° 0 mm 4 mps 750 mmHg 64%
13:00 +11°C° 0 mm 4 mps 750 mmHg 64%
14:00 +11°C° 0 mm 4 mps 750 mmHg 66%
15:00 +10°C° 0 mm 4 mps 750 mmHg 68%
16:00 +10°C° 0 mm 4 mps 749 mmHg 69%
17:00 +8°C° 0 mm 4 mps 749 mmHg 71%
18:00 +8°C° 0 mm 4 mps 749 mmHg 73%
19:00 +7°C° 0 mm 4 mps 749 mmHg 75%
20:00 +6°C° 0 mm 4 mps 749 mmHg 78%
21:00 +7°C° 0 mm 3 mps 749 mmHg 80%
22:00 +5°C° 0 mm 3 mps 749 mmHg 82%
23:00 +5°C° 0 mm 3 mps 749 mmHg 83%

20 April, Tuesday

Time Temperature Precipitation Wind Pressure Humidity
00:00 +6°C° 0 mm 2 mps 748 mmHg 84%
01:00 +6°C° 0 mm 2 mps 748 mmHg 85%
02:00 +6°C° 0 mm 2 mps 748 mmHg 85%
03:00 +6°C° 0 mm 2 mps 747 mmHg 85%
04:00 +6°C° 0 mm 2 mps 747 mmHg 85%
05:00 +5°C° 0 mm 3 mps 747 mmHg 84%
06:00 +5°C° 0 mm 3 mps 747 mmHg 83%
07:00 +7°C° 0 mm 3 mps 747 mmHg 81%
08:00 +7°C° 0 mm 3 mps 746 mmHg 75%
09:00 +7°C° 0 mm 4 mps 746 mmHg 69%
10:00 +8°C° 0 mm 4 mps 746 mmHg 63%
11:00 +10°C° 0.1 mm 4 mps 746 mmHg 60%
12:00 +10°C° 0.1 mm 4 mps 745 mmHg 58%
13:00 +11°C° 0.1 mm 4 mps 745 mmHg 56%
14:00 +11°C° 0.1 mm 4 mps 745 mmHg 59%
15:00 +11°C° 0.1 mm 4 mps 745 mmHg 61%
16:00 +10°C° 0.1 mm 5 mps 744 mmHg 63%
17:00 +8°C° 0.1 mm 4 mps 744 mmHg 69%
18:00 +8°C° 0.1 mm 3 mps 744 mmHg 75%
19:00 +7°C° 0.1 mm 3 mps 744 mmHg 80%
20:00 +7°C° 0 mm 3 mps 744 mmHg 84%
21:00 +5°C° 0 mm 3 mps 744 mmHg 88%
22:00 +5°C° 0 mm 2 mps 744 mmHg 91%
23:00 +4°C° 0 mm 3 mps 744 mmHg 92%

21 April, Wednesday

Time Temperature Precipitation Wind Pressure Humidity
00:00 +3°C° 0 mm 3 mps 744 mmHg 93%
01:00 +3°C° 0 mm 3 mps 744 mmHg 94%
02:00 +3°C° 0 mm 3 mps 744 mmHg 94%
03:00 +3°C° 0 mm 3 mps 744 mmHg 94%
04:00 +3°C° 0 mm 3 mps 744 mmHg 94%
05:00 +3°C° 0 mm 3 mps 744 mmHg 91%
06:00 +4°C° 0 mm 3 mps 744 mmHg 88%
07:00 +5°C° 0 mm 3 mps 744 mmHg 84%
08:00 +6°C° 0 mm 4 mps 745 mmHg 77%
09:00 +7°C° 0 mm 4 mps 745 mmHg 70%
10:00 +8°C° 0 mm 5 mps 745 mmHg 63%
11:00 +9°C° 0 mm 5 mps 745 mmHg 60%
12:00 +10°C° 0 mm 5 mps 745 mmHg 56%
13:00 +10°C° 0 mm 5 mps 745 mmHg 53%
14:00 +10°C° 0.1 mm 5 mps 745 mmHg 54%
15:00 +11°C° 0.1 mm 4 mps 745 mmHg 55%
16:00 +12°C° 0.1 mm 4 mps 745 mmHg 55%
17:00 +10°C° 0 mm 3 mps 745 mmHg 62%
18:00 +9°C° 0 mm 2 mps 745 mmHg 68%
19:00 +8°C° 0 mm 1 mps 745 mmHg 75%
20:00 +7°C° 0 mm 2 mps 746 mmHg 78%
21:00 +6°C° 0 mm 2 mps 746 mmHg 80%
22:00 +6°C° 0 mm 2 mps 746 mmHg 83%
23:00 +5°C° 0 mm 2 mps 746 mmHg 84%
Show more